This is the latest recevied weather packets stored in our database for station/object KO4APQ. If no packets are shown the sender has not sent any weather packets the latest 10 day(s).
| Time | Temp. | Humidity | Pressure | Rain* | Wind** | Luminosity | Snow |
|---|---|---|---|---|---|---|---|
| 1777421117 | 16.67° C | 89% | 1017.9 hPa | 0 mm | - | 6 W/m² | - |
| 1777420814 | 16.67° C | 89% | 1017.8 hPa | 0 mm | - | 10 W/m² | - |
| 1777420510 | 16.67° C | 88% | 1017.8 hPa | 0 mm | - | 14 W/m² | - |
| 1777420206 | 17.22° C | 88% | 1018 hPa | 0 mm | - | 20 W/m² | - |
| 1777419901 | 17.22° C | 88% | 1018 hPa | 0 mm | - | 27 W/m² | - |
| 1777419599 | 17.22° C | 87% | 1018 hPa | 0 mm | - | 33 W/m² | - |
| 1777419298 | 17.22° C | 87% | 1017.9 hPa | 0 mm | - | 41 W/m² | - |
| 1777418996 | 17.22° C | 86% | 1018.1 hPa | 0 mm | - | 48 W/m² | - |
| 1777418690 | 17.22° C | 86% | 1018 hPa | 0 mm | - | 56 W/m² | - |
| 1777418387 | 17.78° C | 85% | 1018.2 hPa | 0 mm | - | 66 W/m² | - |
| 1777418083 | 17.78° C | 85% | 1018.4 hPa | 0 mm | - | 73 W/m² | - |
| 1777417780 | 17.78° C | 85% | 1018.3 hPa | 0 mm | - | 80 W/m² | - |
| 1777417475 | 17.78° C | 85% | 1018.4 hPa | 0 mm | - | 69 W/m² | - |
| 1777417172 | 17.78° C | 85% | 1018.5 hPa | 0 mm | - | 65 W/m² | - |
| 1777416867 | 17.78° C | 84% | 1018.4 hPa | 0 mm | - | 62 W/m² | - |
| 1777416563 | 17.78° C | 84% | 1018.3 hPa | 0 mm | - | 96 W/m² | - |
| 1777416260 | 17.78° C | 84% | 1018.4 hPa | 0 mm | - | 156 W/m² | - |
| 1777415958 | 17.78° C | 84% | 1018.8 hPa | 0 mm | - | 52 W/m² | - |
| 1777415655 | 17.78° C | 83% | 1018.7 hPa | 0 mm | - | 78 W/m² | - |
| 1777415350 | 17.78° C | 84% | 1018.4 hPa | 0 mm | - | 178 W/m² | - |
| 1777415045 | 17.78° C | 84% | 1018.6 hPa | 0 mm | - | 185 W/m² | - |
| 1777414744 | 17.78° C | 83% | 1018.3 hPa | 0 mm | - | 160 W/m² | - |
| 1777414441 | 17.78° C | 83% | 1018.4 hPa | 0 mm | - | 165 W/m² | - |
| 1777414139 | 17.78° C | 82% | 1018.7 hPa | 0 mm | - | 167 W/m² | - |
| 1777413835 | 17.78° C | 82% | 1018.6 hPa | 0 mm | - | 140 W/m² | - |
* Rain latest hour (hover to see other rain measurements)
** Current wind speed in m/s (hover to see current wind gust speed)